[[{"header":{"parameterUnit":"m.s-1","parameterCategory":1,"la1":30.2991,"la2":30.254,"lo1":-89.0895,"lo2":-89.0444,"dy":0.0017,"dx":0.0017,"nx":28,"ny":28,"refTime":"2024-05-04T09:00:00:Z","depth":0,"parameterNumber":2,"parameterNumberName":"U-component_of_WINDS"},"data":[0,0,0,0,0,0,0,0,0,0,0,0,0,0,0,0,0,0,0,0,0,0,0,0,0,0,0,0,0,0,0,0,0,0,0,0,0,0,0,0,0,0,0,0,0,0,0,0,0,0,0,0,0,0,0,0,0,0,-0.9103,-0.9103,0,-0.9069,-0.9068,-0.9068,-0.903,-0.9029,-0.9029,-0.9028,-0.8992,-0.8992,-0.8992,0,0,0,0,0,0,0,0,0,0,0,0,0,-0.9137,-0.9137,-0.9103,-0.9103,-0.9102,-0.9069,-0.9068,-0.9068,-0.903,-0.9029,-0.9028,-0.9028,-0.8993,-0.8992,-0.8991,0,0,0,0,0,0,0,0,0,0,0,0,0,-0.9114,-0.9137,-0.9103,-0.9079,-0.9077,-0.9069,-0.9068,-0.9068,-0.903,-0.9029,-0.9028,-0.9028,-0.8993,-0.8992,-0.8991,-0.9004,0,0,-0.8989,-0.8989,0,0,0,0,0,0,0,0,-0.9116,-0.9113,-0.9083,-0.9081,-0.9078,-0.9053,-0.9067,-0.9046,-0.903,-0.9048,-0.9028,-0.9027,-0.9013,-0.9011,-0.9006,-0.9002,-0.9001,-0.8989,-0.8989,-0.8989,-0.8988,0,0,0,0,0,0,0,-0.9117,-0.9115,-0.909,-0.9083,-0.908,-0.9071,-0.9066,-0.9063,-0.9035,-0.9046,-0.9043,-0.904,-0.9012,-0.9007,-0.9005,-0.9,-0.8989,-0.8989,-0.8988,-0.8988,-0.9005,-0.9006,0,0,0,0,0,0,-0.9123,-0.9116,-0.9091,-0.9088,-0.9095,-0.9071,-0.9066,-0.9062,-0.9035,-0.9031,-0.9041,-0.9038,-0.9008,-0.9006,-0.9003,-0.9017,-0.8989,-0.8988,-0.8988,-0.9005,-0.9006,-0.9007,0,0,0,0,0,0,-0.9123,-0.9121,-0.9092,-0.9101,-0.9097,-0.9071,-0.9066,-0.9061,-0.9057,-0.9031,-0.9026,-0.9041,-0.9007,-0.9004,-0.9004,-0.9015,-0.8988,-0.8987,-0.9004,-0.9005,-0.9006,-0.9043,0,0,0,0,0,0,-0.9125,-0.9121,-0.9125,-0.9102,-0.9097,-0.9093,-0.9067,-0.9061,-0.9056,-0.9052,-0.903,-0.9025,-0.9007,-0.9005,-0.9004,-0.9013,-0.8987,-0.9003,-0.9004,-0.9006,-0.9041,-0.9045,-0.9049,0,0,0,0,0,-0.9126,-0.9137,-0.9126,-0.9123,-0.9102,-0.9094,-0.9091,-0.9069,-0.9057,-0.9061,-0.9045,-0.9026,-0.9014,-0.9006,-0.9003,-0.9013,-0.9002,-0.9004,-0.9006,-0.9039,-0.9044,-0.9049,0,0,0,0,0,0,-0.9162,-0.9134,-0.9121,-0.9125,-0.9112,-0.9088,-0.9092,-0.9076,-0.9067,-0.9064,-0.9037,-0.9032,-0.9036,-0.9024,-0.9015,-0.9024,-0.9005,-0.9007,-0.9031,-0.9037,-0.9041,-0.9043,-0.8986,0,0,0,0,0,-0.9171,-0.9167,-0.9142,-0.9148,-0.9142,-0.9119,-0.9114,-0.9099,-0.9085,-0.9079,-0.9063,-0.905,-0.9043,-0.9039,-0.9032,-0.9039,-0.9034,-0.9045,-0.9049,-0.9053,-0.9054,-0.9058,-0.9062,-0.9013,-0.9013,-0.9013,0,0,-0.9189,-0.9172,-0.9171,-0.9155,-0.9143,-0.914,-0.9114,-0.9112,-0.9109,-0.9079,-0.9078,-0.9065,-0.9049,-0.9053,-0.9054,-0.9044,-0.9067,-0.9055,-0.9058,-0.9058,-0.906,-0.9065,-0.9069,-0.9014,-0.9014,-0.9014,0,0,-0.9219,-0.9206,-0.921,-0.9199,-0.9182,-0.9166,-0.9167,-0.9145,-0.9136,-0.9134,-0.9112,-0.9108,-0.9097,-0.9087,-0.908,-0.9107,-0.909,-0.9106,-0.9128,-0.9132,-0.9136,-0.9139,-0.9149,-0.9153,-0.9107,-0.9107,-0.9107,0,-0.9243,-0.9237,-0.9214,-0.9213,-0.9206,-0.9179,-0.9183,-0.9173,-0.9155,-0.9151,-0.914,-0.9126,-0.9113,-0.9114,-0.9121,-0.9116,-0.9117,-0.9108,-0.9137,-0.914,-0.9143,-0.9152,-0.9156,-0.9109,-0.9109,-0.9109,-0.9109,0,-0.9267,-0.9264,-0.9269,-0.9252,-0.9246,-0.9247,-0.9225,-0.9222,-0.9207,-0.9192,-0.9192,-0.9175,-0.9164,-0.9163,-0.9149,-0.9163,-0.9157,-0.9142,-0.9122,-0.915,-0.9158,-0.9162,-0.9112,-0.9112,-0.9111,-0.911,0,0,-0.9319,-0.929,-0.9292,-0.9284,-0.9264,-0.926,-0.9261,-0.925,-0.9248,-0.9237,-0.9237,-0.9228,-0.9214,-0.9207,-0.9191,-0.9194,-0.9217,-0.9179,-0.9178,-0.9187,-0.9232,-0.9244,-0.9248,-0.9206,-0.9207,-0.9207,-0.9234,0,-0.9346,-0.9345,-0.9324,-0.9329,-0.9326,-0.93,-0.9301,-0.9288,-0.9275,-0.927,-0.9255,-0.925,-0.9232,-0.9228,-0.923,-0.9214,-0.9226,-0.9212,-0.9206,-0.9206,-0.921,-0.9252,-0.9264,-0.929,-0.9237,-0.9237,-0.9237,0,-0.9377,-0.9367,-0.9372,-0.9352,-0.935,-0.935,-0.9339,-0.9335,-0.9321,-0.9311,-0.9303,-0.9285,-0.9284,-0.9266,-0.9265,-0.9256,-0.9252,-0.9244,-0.9245,-0.9243,-0.9223,-0.9252,-0.9298,-0.9302,-0.9242,-0.9242,-0.9242,0,-0.9415,-0.9403,-0.9404,-0.9398,-0.9375,-0.9376,-0.9366,-0.9351,-0.9346,-0.9336,-0.9333,-0.9323,-0.9318,-0.9311,-0.9291,-0.928,-0.9293,-0.9273,-0.9285,-0.9285,-0.9288,-0.9288,-0.9334,-0.9286,-0.9286,-0.9286,-0.9286,0,-0.9447,-0.9451,-0.9421,-0.9422,-0.9426,-0.9402,-0.9407,-0.9394,-0.9381,-0.9379,-0.9357,-0.9355,-0.9329,-0.9325,-0.931,-0.9311,-0.9309,-0.9301,-0.9297,-0.9303,-0.9304,-0.93,-0.9298,-0.9287,-0.9287,-0.9286,-0.9286,0,-0.949,-0.947,-0.947,-0.9447,-0.9442,-0.9446,-0.9427,-0.9427,-0.9412,-0.941,-0.9409,-0.9386,-0.938,-0.936,-0.9349,-0.9338,-0.9345,-0.9337,-0.935,-0.9347,-0.936,-0.9359,-0.9405,-0.941,-0.9359,-0.9359,-0.936,0,-0.9512,-0.9514,-0.9492,-0.9489,-0.9481,-0.9476,-0.9471,-0.9448,-0.9444,-0.9428,-0.943,-0.9423,-0.9415,-0.9407,-0.939,-0.9381,-0.9373,-0.939,-0.9372,-0.9378,-0.9374,-0.9374,-0.9374,-0.9394,-0.9394,-0.9395,-0.9395,0,-0.9553,-0.9543,-0.9536,-0.9527,-0.9521,-0.9513,-0.9503,-0.9502,-0.9476,-0.9473,-0.9466,-0.9461,-0.945,-0.9442,-0.9431,-0.9421,-0.9404,-0.9401,-0.9403,-0.941,-0.9418,-0.9414,-0.936,-0.94,-0.94,-0.9399,-0.9399,-0.9399,-0.9586,-0.9587,-0.9572,-0.9566,-0.9556,-0.9547,-0.9546,-0.9531,-0.9526,-0.9515,-0.9502,-0.9498,-0.9483,-0.9467,-0.9458,-0.9455,-0.9445,-0.9448,-0.9449,-0.945,-0.9454,-0.9418,-0.9452,-0.9452,-0.9452,-0.9452,-0.9452,0,-0.9626,-0.9615,-0.961,-0.9596,-0.9592,-0.9576,-0.9564,-0.9561,-0.9557,-0.9546,-0.9539,-0.9532,-0.9525,-0.9508,-0.9499,-0.9499,-0.9491,-0.9498,-0.9498,-0.9496,-0.9462,-0.9461,-0.9505,-0.9505,-0.9505,-0.9504,-0.9504,-0.9504,-0.9646,-0.9648,-0.9636,-0.9632,-0.9621,-0.9617,-0.9611,-0.9603,-0.9594,-0.9587,-0.9581,-0.957,-0.9556,-0.9546,-0.9539,-0.9534,-0.9532,-0.9541,-0.9534,-0.9503,-0.9498,-0.9493,-0.9492,-0.9541,-0.9541,-0.9567,-0.9568,-0.9568]},{"header":{"parameterUnit":"m.s-1","parameterCategory":1,"la1":30.2991,"la2":30.254,"lo1":-89.0895,"lo2":-89.0444,"dy":0.0017,"dx":0.0017,"nx":28,"ny":28,"refTime":"2024-05-04T09:00:00:Z","depth":0,"parameterNumber":3,"parameterNumberName":"V-component_of_WINDS"},"data":[0,0,0,0,0,0,0,0,0,0,0,0,0,0,0,0,0,0,0,0,0,0,0,0,0,0,0,0,0,0,0,0,0,0,0,0,0,0,0,0,0,0,0,0,0,0,0,0,0,0,0,0,0,0,0,0,0,0,2.8219,2.8219,0,2.8236,2.8236,2.8236,2.8229,2.8229,2.8228,2.8228,2.8244,2.8244,2.8245,0,0,0,0,0,0,0,0,0,0,0,0,0,2.8179,2.818,2.8219,2.8219,2.822,2.8236,2.8236,2.8237,2.8229,2.8229,2.8228,2.8228,2.8243,2.8244,2.8245,0,0,0,0,0,0,0,0,0,0,0,0,0,2.8196,2.818,2.8219,2.8218,2.8218,2.8236,2.8236,2.8237,2.8229,2.8229,2.8228,2.8228,2.8243,2.8244,2.8245,2.8265,0,0,2.8249,2.8249,0,0,0,0,0,0,0,0,2.8195,2.8198,2.8218,2.8218,2.8218,2.823,2.8228,2.8246,2.823,2.8225,2.8228,2.8227,2.8239,2.8241,2.8245,2.8265,2.8266,2.8249,2.825,2.825,2.8251,0,0,0,0,0,0,0,2.8194,2.8197,2.8226,2.8218,2.8218,2.8216,2.8218,2.8231,2.8235,2.8225,2.8225,2.8227,2.8239,2.8244,2.8246,2.8266,2.8249,2.825,2.8251,2.8251,2.8305,2.8305,0,0,0,0,0,0,2.8193,2.8196,2.8225,2.8226,2.8205,2.8217,2.8219,2.8227,2.8235,2.8236,2.8228,2.8227,2.8242,2.8244,2.8246,2.8271,2.825,2.8251,2.8252,2.8304,2.8305,2.8306,0,0,0,0,0,0,2.8192,2.8196,2.8224,2.8211,2.8215,2.8219,2.8227,2.8227,2.8232,2.8237,2.8237,2.8232,2.8242,2.8244,2.8261,2.8271,2.8252,2.8253,2.8303,2.8304,2.8305,2.8319,0,0,0,0,0,0,2.8191,2.8196,2.8203,2.8211,2.8215,2.8239,2.8228,2.8228,2.8235,2.8234,2.8241,2.8242,2.8242,2.8259,2.8262,2.8272,2.8254,2.8302,2.8304,2.8305,2.8318,2.832,2.8323,0,0,0,0,0,2.819,2.8206,2.8204,2.8207,2.8225,2.824,2.8242,2.8242,2.8235,2.8243,2.8246,2.8241,2.8269,2.8261,2.8264,2.8275,2.8302,2.8303,2.8305,2.8317,2.832,2.8323,0,0,0,0,0,0,2.8197,2.8207,2.8205,2.8223,2.8231,2.8238,2.8248,2.8246,2.8255,2.8253,2.8252,2.8254,2.8271,2.8274,2.8265,2.8295,2.8284,2.8287,2.8292,2.8295,2.8298,2.8297,2.8255,0,0,0,0,0,2.8202,2.8213,2.822,2.8236,2.824,2.8244,2.825,2.825,2.8257,2.826,2.8264,2.8271,2.8282,2.8289,2.8298,2.8318,2.832,2.8327,2.833,2.8332,2.8334,2.8346,2.835,2.8311,2.8311,2.8311,0,0,2.821,2.8216,2.8223,2.8238,2.8244,2.8256,2.8246,2.8259,2.8268,2.8262,2.8278,2.8281,2.8289,2.8308,2.8316,2.8311,2.8345,2.8334,2.8336,2.8337,2.8348,2.8352,2.8355,2.8312,2.8312,2.8312,0,0,2.8231,2.8237,2.8251,2.8258,2.8267,2.827,2.8273,2.8282,2.8284,2.83,2.8296,2.8307,2.8324,2.8331,2.8336,2.8361,2.8358,2.8364,2.8378,2.839,2.8393,2.8395,2.8405,2.8409,2.8366,2.8366,2.8366,0,2.824,2.8258,2.8259,2.8273,2.828,2.8276,2.8291,2.8297,2.8309,2.8314,2.8308,2.8331,2.8336,2.8356,2.8363,2.8367,2.8371,2.8364,2.8392,2.8395,2.8397,2.8407,2.8411,2.8367,2.8367,2.8367,2.8367,0,2.8269,2.8282,2.8293,2.8306,2.8314,2.8328,2.8331,2.8339,2.8338,2.8341,2.8359,2.8364,2.8376,2.8381,2.8379,2.8401,2.8398,2.8392,2.8382,2.8402,2.8411,2.8415,2.8368,2.8368,2.8368,2.8368,0,0,2.8295,2.831,2.8314,2.8321,2.8331,2.8341,2.8355,2.8368,2.8375,2.8383,2.8396,2.8411,2.8407,2.8413,2.8412,2.8422,2.8444,2.8415,2.8416,2.8422,2.847,2.8475,2.8479,2.8441,2.8442,2.8442,2.8469,0,2.8318,2.8345,2.8347,2.837,2.8383,2.838,2.8392,2.84,2.8404,2.8414,2.8417,2.8429,2.8421,2.8425,2.8435,2.8439,2.8453,2.8437,2.8453,2.8453,2.8452,2.8483,2.8489,2.8514,2.8473,2.8473,2.8474,0,2.8349,2.836,2.8385,2.8396,2.8401,2.8413,2.8425,2.8435,2.8444,2.8446,2.8454,2.8452,2.8467,2.8456,2.8476,2.8465,2.8472,2.8475,2.8476,2.8478,2.8465,2.8487,2.8522,2.8526,2.8479,2.8479,2.8478,0,2.8367,2.8388,2.8406,2.8412,2.8424,2.8432,2.8438,2.8446,2.8454,2.8464,2.847,2.8481,2.8487,2.8496,2.8498,2.849,2.8519,2.8508,2.8521,2.8521,2.8528,2.8528,2.8565,2.8531,2.8531,2.8531,2.8531,0,2.8393,2.8409,2.8415,2.8426,2.8444,2.8446,2.8464,2.8468,2.8476,2.8488,2.8486,2.8497,2.8498,2.851,2.8511,2.8528,2.8531,2.8533,2.8533,2.8534,2.8534,2.8539,2.8537,2.8532,2.8532,2.8531,2.8531,0,2.8417,2.8421,2.8441,2.8452,2.8455,2.8468,2.8477,2.8488,2.8491,2.8506,2.851,2.8515,2.8529,2.8531,2.8547,2.8548,2.857,2.8567,2.8567,2.8567,2.8581,2.858,2.8623,2.863,2.859,2.8591,2.8591,0,2.8433,2.8446,2.8459,2.8467,2.8473,2.8487,2.8495,2.8497,2.8506,2.8518,2.8528,2.8542,2.8553,2.8575,2.858,2.8592,2.8591,2.8605,2.8593,2.8594,2.8593,2.8592,2.8594,2.8608,2.8608,2.8609,2.8609,0,2.8463,2.8465,2.8478,2.8492,2.8503,2.8514,2.8524,2.8531,2.8534,2.8544,2.8559,2.8568,2.8585,2.8599,2.8611,2.8616,2.8614,2.8613,2.8617,2.8618,2.8618,2.862,2.8575,2.8612,2.8612,2.8612,2.8611,2.8611,2.8485,2.8496,2.8508,2.8522,2.8531,2.8541,2.8552,2.8558,2.857,2.8585,2.8585,2.8602,2.8611,2.8628,2.8634,2.8647,2.8642,2.8648,2.8649,2.8651,2.8653,2.8615,2.8649,2.8649,2.8649,2.8648,2.8648,0,2.8516,2.8523,2.8537,2.8552,2.8564,2.8561,2.8573,2.8582,2.8597,2.8607,2.8619,2.8636,2.865,2.8656,2.867,2.8679,2.8678,2.8682,2.8682,2.8684,2.8655,2.8651,2.8683,2.8683,2.8683,2.8683,2.8683,2.8683,2.8533,2.8553,2.8557,2.8581,2.8588,2.8605,2.8612,2.8622,2.863,2.865,2.8662,2.8666,2.8675,2.8689,2.8702,2.8703,2.8709,2.8714,2.8715,2.8689,2.8685,2.8682,2.8678,2.8715,2.8715,2.8742,2.8743,2.8743]}]]